DW0126 Weather Reports


Display with metric or nautical units.
time (UTC)temp
F
wind
direction
speed
MPH
gust
MPH
rain 1hr
in
rain 24hr
in
rain mn
in
humidity
%
barometer
mb
20260506134216 51 0.0 0.0 0.00 0.00 0.00 93 1019.1
20260506133216 51 0.0 0.0 0.00 0.00 0.00 93 1019.1
20260506132236 51 225 3.0 5.0 0.00 0.00 0.00 93 1019.0
20260506131216 51 225 3.0 4.0 0.00 0.00 0.00 93 1019.0
20260506130216 52 225 3.0 5.0 0.00 0.00 0.00 93 1018.8
20260506125216 52 248 1.0 4.0 0.00 0.00 0.00 93 1018.6
20260506124216 52 225 3.0 6.0 0.00 0.00 0.00 93 1018.7
20260506123216 52 248 4.0 5.0 0.00 0.00 0.00 93 1018.6
20260506122216 52 225 2.0 3.0 0.00 0.00 0.00 93 1018.5
20260506121236 52 225 2.0 3.0 0.00 0.00 0.00 92 1018.5
20260506120216 52 225 2.0 4.0 0.00 0.00 0.00 92 1018.4
20260506115236 52 248 2.0 3.0 0.00 0.00 0.00 92 1018.3
20260506114216 52 270 2.0 3.0 0.00 0.00 0.00 92 1018.1
20260506113216 52 225 1.0 2.0 0.00 0.00 0.00 91 1018.1
20260506112216 52 158 2.0 4.0 0.00 0.00 0.00 91 1018.2
20260506111216 52 225 3.0 4.0 0.00 0.00 0.00 91 1018.1
20260506110216 52 225 3.0 5.0 0.00 0.00 0.00 91 1018.1
20260506105216 52 0.0 0.0 0.00 0.00 0.00 90 1018.0
20260506104216 53 225 3.0 4.0 0.00 0.00 0.00 90 1017.9
20260506103216 53 248 3.0 4.0 0.00 0.00 0.00 89 1017.8
20260506102216 53 248 1.0 3.0 0.00 0.00 0.00 89 1017.8
20260506101236 53 248 3.0 5.0 0.00 0.00 0.00 88 1017.7
20260506100216 53 248 3.0 5.0 0.00 0.00 0.00 88 1017.6
20260506095216 53 225 3.0 9.0 0.00 0.00 0.00 88 1017.6
20260506094216 53 248 2.0 3.0 0.00 0.00 0.00 87 1017.5
20260506093216 53 225 2.0 3.0 0.00 0.00 0.00 87 1017.4
20260506092216 53 248 3.0 5.0 0.00 0.00 0.00 87 1017.5
20260506091216 53 248 4.0 5.0 0.00 0.00 0.00 87 1017.5
20260506090236 53 203 3.0 5.0 0.00 0.00 0.00 87 1017.5
20260506085216 54 225 3.0 4.0 0.00 0.00 0.00 87 1017.3
20260506084216 54 248 3.0 4.0 0.00 0.00 0.00 87 1017.2
20260506083216 54 225 5.0 7.0 0.00 0.00 0.00 87 1017.1
20260506082216 54 248 3.0 5.0 0.00 0.00 0.00 87 1017.0
20260506081216 54 248 2.0 4.0 0.00 0.00 0.00 88 1016.9
20260506080216 54 248 3.0 6.0 0.00 0.00 0.00 88 1016.9
20260506073216 53 0.0 0.0 0.00 0.00 0.00 90 1016.5
20260506072215 53 225 1.0 2.0 0.00 0.00 0.00 90 1016.5
20260506071236 53 248 2.0 4.0 0.00 0.00 0.00 90 1016.4
20260506070216 53 0.0 0.0 0.00 0.00 0.00 90 1016.3
20260506062236 53 0.0 0.0 0.00 0.00 0.00 89 1016.1
20260506061216 53 0.0 0.0 0.00 0.00 0.00 88 1016.0
20260506060216 53 0.0 0.0 0.00 0.00 0.00 88 1015.9
20260506051217 54 0.0 0.0 0.00 0.00 0.00 86 1015.7
20260506050216 55 203 1.0 1.0 0.00 0.00 0.00 86 1015.7
20260506044237 55 225 1.0 2.0 0.00 0.00 0.00 84 1015.6
20260506043217 56 0.0 0.0 0.00 0.00 0.00 84 1015.6
20260506042217 56 0.0 0.0 0.00 0.00 0.00 84 1015.5
20260506041216 57 0.0 0.0 0.00 0.00 0.00 83 1015.4
20260506040216 57 0.0 0.0 0.00 0.00 0.00 83 1015.3
20260506035216 58 0.0 0.0 0.00 0.00 0.00 82 1015.1
20260506034216 58 0.0 0.0 0.00 0.00 0.00 80 1015.0
20260506033216 59 203 2.0 4.0 0.00 0.00 0.00 79 1015.0
20260506032216 59 225 2.0 4.0 0.00 0.00 0.00 78 1014.9
20260506031216 60 0.0 0.0 0.00 0.00 0.00 77 1014.8
20260506030216 61 225 3.0 5.0 0.00 0.00 0.00 76 1014.7
20260506025216 61 225 3.0 4.0 0.00 0.00 0.00 74 1014.6
20260506024216 62 270 2.0 4.0 0.00 0.00 0.00 73 1014.7
20260506023217 62 248 4.0 6.0 0.00 0.00 0.00 73 1014.7
20260506022216 63 270 2.0 4.0 0.00 0.00 0.00 72 1014.7
20260506021257 63 248 4.0 6.0 0.00 0.00 0.00 71 1014.7
20260506020216 64 270 2.0 4.0 0.00 0.00 0.00 71 1014.7
20260506015217 64 248 5.0 6.0 0.00 0.00 0.00 71 1014.6
20260506014216 64 225 1.0 4.0 0.00 0.00 0.00 71 1014.6
20260506013217 64 248 1.0 1.0 0.00 0.00 0.00 72 1014.6
20260506012216 64 293 2.0 4.0 0.00 0.00 0.00 71 1014.6
20260506011216 64 225 4.0 5.0 0.00 0.00 0.00 72 1014.5
20260506010216 63 248 4.0 8.0 0.00 0.00 0.00 72 1014.6
20260506005216 63 0.0 0.0 0.00 0.00 0.00 72 1014.7
20260506004217 64 293 3.0 6.0 0.00 0.00 0.00 72 1014.7
20260506003216 63 248 3.0 4.0 0.00 0.00 0.00 73 1014.7
20260506002216 63 225 4.0 7.0 0.00 0.00 0.00 72 1014.8
20260506001216 63 248 4.0 7.0 0.00 0.00 0.00 73 1014.7
20260506000216 63 248 4.0 7.0 0.00 0.00 0.00 72 1014.9
20260505235216 63 293 4.0 6.0 0.00 0.00 0.00 72 1014.9
20260505234236 63 225 4.0 6.0 0.00 0.00 0.00 73 1015.0
20260505233217 62 248 1.0 3.0 0.00 0.00 0.00 73 1015.0
20260505232217 63 225 5.0 8.0 0.00 0.00 0.00 73 1015.1
20260505231216 62 248 4.0 6.0 0.00 0.00 0.00 74 1015.2
20260505230216 62 315 4.0 6.0 0.00 0.00 0.00 72 1015.3
20260505225216 62 293 3.0 5.0 0.00 0.00 0.00 73 1015.3
20260505224216 62 225 4.0 8.0 0.00 0.00 0.00 73 1015.3
20260505223237 62 248 2.0 4.0 0.00 0.00 0.00 73 1015.4
20260505222216 62 248 2.0 6.0 0.00 0.00 0.00 74 1015.5
20260505221257 62 248 4.0 6.0 0.00 0.00 0.00 73 1015.6
20260505220217 62 225 4.0 7.0 0.00 0.00 0.00 73 1015.6
20260505215217 62 203 1.0 4.0 0.00 0.00 0.00 72 1015.6
20260505214216 62 270 2.0 4.0 0.00 0.00 0.00 72 1015.6
20260505213216 62 0.0 0.0 0.00 0.00 0.00 72 1015.7
20260505212256 62 248 4.0 6.0 0.00 0.00 0.00 73 1015.7
20260505211236 62 293 3.0 5.0 0.00 0.00 0.00 72 1015.8
20260505210216 62 0.0 0.0 0.00 0.00 0.00 73 1015.8
20260505205236 61 0.0 0.0 0.00 0.00 0.00 74 1015.8
20260505204256 61 203 4.0 6.0 0.00 0.00 0.00 75 1015.8
20260505203216 60 203 2.0 5.0 0.00 0.00 0.00 75 1015.9
20260505202216 60 225 3.0 6.0 0.00 0.00 0.00 76 1015.8
20260505201216 60 248 4.0 6.0 0.00 0.00 0.00 75 1015.7
20260505200217 60 248 2.0 3.0 0.00 0.00 0.00 76 1015.7
20260505195236 59 248 3.0 5.0 0.00 0.00 0.00 76 1015.7
20260505194216 59 248 1.0 3.0 0.00 0.00 0.00 77 1015.8
20260505193217 59 293 2.0 3.0 0.00 0.00 0.00 76 1015.8
20260505192216 59 270 3.0 4.0 0.00 0.00 0.00 76 1015.7
20260505191216 59 225 4.0 6.0 0.00 0.00 0.00 76 1015.6
20260505190217 59 225 3.0 6.0 0.00 0.00 0.00 77 1015.6
20260505185236 59 225 1.0 3.0 0.00 0.00 0.00 77 1015.7
20260505184216 58 270 2.0 3.0 0.00 0.00 0.00 78 1015.8
20260505183216 58 0.0 2.0 0.00 0.00 0.00 78 1015.7
20260505182216 58 180 4.0 6.0 0.00 0.00 0.00 78 1015.6
20260505181216 58 225 3.0 4.0 0.00 0.00 0.00 78 1015.6
20260505180216 58 293 2.0 3.0 0.00 0.00 0.00 79 1015.6
20260505175216 57 270 1.0 3.0 0.00 0.00 0.00 79 1015.5
20260505174216 57 270 2.0 4.0 0.00 0.00 0.00 80 1015.5
20260505173217 57 225 2.0 4.0 0.00 0.00 0.00 80 1015.4
20260505172216 57 270 3.0 5.0 0.00 0.00 0.00 81 1015.3
20260505171216 56 225 3.0 5.0 0.00 0.00 0.00 82 1015.3
20260505170216 56 248 3.0 5.0 0.00 0.00 0.00 82 1015.3
20260505165216 56 248 3.0 4.0 0.00 0.00 0.00 82 1015.3
20260505164256 56 225 3.0 4.0 0.00 0.00 0.00 82 1015.3
20260505163216 56 225 2.0 5.0 0.00 0.00 0.00 82 1015.1
20260505162236 56 225 3.0 5.0 0.00 0.00 0.00 81 1015.1
20260505161216 56 225 3.0 5.0 0.00 0.00 0.00 81 1015.1
20260505160217 56 0.0 1.0 0.00 0.00 0.00 82 1015.1
20260505153216 56 180 2.0 3.0 0.00 0.00 0.00 83 1014.9
20260505152216 56 135 1.0 3.0 0.00 0.00 0.00 83 1015.0
20260505151216 56 248 2.0 5.0 0.00 0.00 0.00 84 1014.9
20260505150236 56 0.0 0.0 0.00 0.00 0.00 85 1014.8
20260505140216 55 0.0 0.0 0.00 0.00 0.00 86 1014.4